Location: Unspecified
(0.0000°N, 0.0000°E)
Time: 05:06:51
(UTC+00:00)

DMSP 5D-2 F13 DEB - Pass Details

Date: 14 February 2026
Orbit: 782 x 824 km, 98.9° (Epoch: 8 March)

Event Time Altitude Azimuth Distance (km) Brightness Sun altitude
Rises 20:11:16 0° 195° (SSW) 3,283 ? -28.5°
Reaches altitude 10° 20:14:11 10° 211° (SSW) 2,346 ? -29.2°
Maximum altitude 20:17:50 20° 257° (WSW) 1,763 ? -30.1°
Drops below altitude 10° 20:21:28 10° 302° (WNW) 2,331 ? -31.0°
Sets 20:24:23 0° 319° (NW) 3,254 ? -31.7°
